Location: Asheville, NC
(35.6000°N, 82.5500°W)
Time: 08:57:07
(UTC-05:00)

N. Korean satellite - Pass Details

Date: 09 January 2018
Orbit: 459 x 515 km, 97.2° (Epoch: 17 January)

Event Time Altitude Azimuth Distance (km) Brightness Sun altitude
Rises 18:34:19 0° 171° (S) 2,601 10.4 -12.0°
Reaches altitude 10° 18:36:24 10° 173° (S) 1,715 9.5 -12.4°
Maximum altitude 18:40:06 75° 259° (WSW) 523 6.8 -13.1°
Drops below altitude 10° 18:43:46 10° 345° (NNW) 1,701 9.3 -13.8°
Sets 18:45:50 0° 347° (NNW) 2,579 10.2 -14.2°
